Temp
-8 -8 -7 -7 -7 -7 -7 -7 -7 -7 -7 -7 -7 -7 -6 -6 -6 -7 -7 -7 -7 -7 -7 -7 -7 -7 -6 -6 -6 -7 -7 -7 -7 -7 -7 -7 -7 -7 -7 -7 -8 -8 -8 -8 -8 -8 -9 -9 -9 -9 -9 -9 -9 -9 -9 -9 -9 -9 -9 -8 -8 -8 -8
-8 -8 -7 -7 -7 -7 -7 -7 -7 -7 -7 -7 -7 -7 -7 -7 -7 -7 -7 -7 -7 -7 -7 -7 -7 -7 -7 -7 -7 -7 -7 -7 -7 -7 -7 -7 -7 -8 -8 -8 -8 -8 -8 -8 -9 -9 -9 -9 -9 -9 -9 -9 -9 -9 -9 -9 -9 -9 -9 -9 -9 -8 -8
-7 -7 -7 -7 -7 -7 -7 -7 -7 -7 -7 -7 -7 -7 -7 -7 -7 -7 -7 -7 -7 -7 -7 -7 -7 -7 -7 -7 -7 -7 -7 -7 -7 -7 -7 -7 -8 -8 -8 -8 -8 -8 -8 -8 -9 -9 -9 -9 -9 -9 -9 -9 -9 -9 -9 -9 -9 -9 -9 -9 -9 -8 -8
-7 -7 -7 -7 -7 -7 -7 -7 -7 -8 -8 -7 -7 -7 -7 -7 -7 -7 -7 -7 -7 -7 -7 -7 -7 -7 -7 -7 -7 -7 -7 -7 -7 -7 -7 -7 -8 -8 -8 -8 -8 -8 -8 -8 -9 -10 -10 -9 -9 -9 -9 -9 -9 -9 -9 -9 -9 -9 -9 -9 -9 -8 -8
-7 -7 -7 -7 -7 -7 -7 -7 -8 -8 -8 -8 -7 -7 -7 -7 -7 -7 -7 -7 -7 -8 -8 -8 -8 -8 -8 -8 -7 -7 -7 -7 -7 -8 -7 -7 -7 -7 -8 -8 -8 -8 -8 -9 -9 -10 -10 -9 -9 -9 -9 -9 -9 -9 -9 -9 -9 -9 -9 -9 -9 -8 -8
-7 -7 -7 -7 -7 -7 -7 -7 -8 -8 -8 -8 -8 -7 -7 -7 -7 -7 -7 -7 -8 -8 -8 -8 -8 -8 -8 -8 -8 -8 -7 -7 -7 -7 -7 -7 -8 -8 -8 -8 -8 -9 -9 -9 -9 -9 -9 -9 -9 -9 -9 -9 -9 -9 -9 -9 -9 -9 -9 -9 -9 -9 -9
-7 -7 -7 -7 -7 -7 -7 -7 -8 -8 -8 -8 -8 -7 -7 -7 -7 -7 -7 -7 -8 -8 -8 -8 -8 -8 -8 -8 -8 -8 -8 -7 -7 -7 -8 -8 -8 -8 -8 -9 -9 -9 -9 -9 -9 -9 -9 -9 -9 -9 -9 -9 -9 -9 -9 -9 -9 -9 -9 -9 -9 -9 -9
-7 -7 -7 -7 -7 -7 -7 -7 -8 -8 -8 -8 -7 -7 -7 -7 -7 -7 -7 -7 -7 -7 -7 -8 -8 -8 -8 -8 -8 -8 -8 -8 -8 -8 -8 -8 -8 -9 -9 -9 -9 -9 -9 -9 -9 -9 -9 -9 -9 -9 -9 -9 -9 -9 -9 -9 -9 -9 -9 -9 -9 -9 -9
-7 -7 -7 -7 -7 -7 -7 -7 -8 -8 -8 -8 -7 -7 -7 -7 -7 -7 -7 -7 -7 -7 -8 -8 -8 -8 -8 -8 -8 -8 -8 -8 -8 -8 -8 -8 -8 -8 -9 -9 -9 -9 -9 -8 -9 -9 -9 -9 -9 -9 -9 -9 -9 -9 -10 -10 -10 -10 -10 -10 -9 -9 -9
-7 -7 -7 -7 -7 -7 -7 -7 -7 -7 -8 -8 -7 -7 -7 -7 -7 -7 -7 -7 -7 -7 -8 -8 -8 -8 -8 -8 -8 -8 -8 -8 -8 -8 -8 -8 -8 -8 -9 -9 -9 -9 -9 -8 -9 -9 -9 -8 -9 -9 -9 -9 -9 -9 -10 -10 -10 -10 -10 -10 -9 -9 -9
-8 -7 -7 -7 -7 -7 -7 -7 -7 -7 -8 -8 -8 -8 -8 -7 -7 -7 -7 -7 -7 -7 -7 -8 -8 -8 -8 -8 -7 -8 -8 -8 -8 -9 -9 -9 -8 -8 -9 -9 -9 -9 -9 -9 -9 -9 -8 -8 -9 -9 -9 -9 -9 -9 -10 -10 -10 -10 -9 -9 -9 -9 -9
-8 -7 -7 -7 -7 -7 -7 -7 -7 -7 -8 -8 -8 -8 -8 -8 -7 -7 -7 -7 -7 -7 -7 -8 -8 -8 -8 -8 -8 -8 -9 -8 -8 -9 -8 -8 -8 -8 -9 -8 -9 -9 -9 -9 -9 -8 -8 -9 -9 -9 -9 -9 -9 -9 -10 -10 -10 -9 -8 -8 -9 -9 -9
-8 -8 -8 -8 -7 -7 -7 -7 -7 -8 -8 -8 -8 -8 -8 -8 -7 -7 -7 -7 -7 -7 -7 -8 -8 -7 -7 -8 -8 -9 -9 -9 -9 -9 -8 -9 -9 -9 -9 -9 -9 -9 -9 -9 -9 -9 -9 -9 -9 -9 -9 -9 -9 -9 -9 -9 -9 -9 -9 -9 -9 -9 -10
-8 -8 -8 -8 -8 -7 -7 -7 -8 -8 -8 -8 -8 -8 -8 -8 -8 -7 -7 -7 -7 -7 -8 -8 -8 -7 -8 -8 -8 -8 -8 -9 -9 -9 -9 -9 -8 -8 -8 -9 -10 -9 -9 -9 -9 -9 -9 -9 -9 -9 -9 -9 -9 -9 -8 -9 -9 -9 -9 -9 -9 -9 -10
-8 -8 -8 -8 -8 -8 -8 -8 -8 -8 -8 -8 -8 -8 -8 -8 -8 -8 -7 -8 -8 -8 -8 -8 -8 -8 -8 -8 -7 -8 -8 -8 -8 -9 -8 -8 -8 -8 -9 -10 -10 -10 -9 -9 -10 -10 -9 -9 -9 -9 -9 -9 -9 -9 -8 -8 -9 -9 -9 -9 -10 -10 -10
-8 -8 -8 -8 -8 -8 -8 -8 -8 -8 -8 -8 -8 -8 -8 -8 -8 -8 -8 -8 -8 -8 -8 -8 -8 -8 -8 -7 -7 -8 -8 -8 -8 -8 -8 -8 -8 -9 -10 -10 -9 -10 -10 -9 -9 -9 -9 -9 -9 -8 -8 -9 -8 -8 -8 -8 -8 -9 -9 -9 -9 -9 -10
-8 -8 -8 -8 -8 -8 -8 -8 -8 -8 -8 -8 -8 -8 -8 -8 -8 -8 -8 -8 -8 -8 -8 -8 -8 -8 -8 -7 -7 -8 -8 -8 -8 -8 -8 -9 -9 -9 -10 -9 -9 -9 -9 -9 -9 -9 -9 -9 -9 -8 -8 -8 -8 -8 -8 -8 -8 -8 -8 -8 -8 -9 -10
-8 -8 -8 -8 -8 -8 -8 -8 -8 -8 -8 -8 -8 -8 -8 -8 -8 -8 -8 -8 -8 -8 -8 -7 -7 -7 -7 -7 -7 -7 -7 -8 -8 -8 -9 -9 -10 -9 -9 -9 -9 -9 -9 -9 -10 -10 -9 -9 -9 -8 -8 -8 -8 -9 -8 -8 -8 -8 -8 -8 -8 -9 -10
-8 -8 -8 -8 -8 -8 -8 -8 -8 -8 -8 -8 -8 -8 -8 -8 -8 -8 -8 -8 -8 -8 -7 -7 -7 -7 -7 -7 -7 -7 -8 -8 -8 -8 -9 -9 -9 -9 -9 -9 -9 -9 -9 -9 -10 -10 -10 -10 -9 -9 -9 -9 -9 -9 -8 -8 -8 -8 -8 -8 -8 -9 -9
-8 -8 -8 -8 -8 -8 -8 -8 -7 -8 -8 -8 -8 -8 -8 -8 -8 -8 -8 -8 -8 -8 -7 -7 -8 -8 -7 -7 -8 -8 -8 -8 -8 -8 -8 -8 -9 -9 -9 -9 -9 -9 -9 -9 -10 -10 -10 -10 -10 -10 -9 -9 -9 -9 -8 -8 -8 -8 -8 -8 -8 -8 -9
-8 -8 -7 -8 -8 -8 -8 -7 -7 -8 -8 -8 -8 -8 -8 -8 -8 -8 -8 -8 -8 -8 -8 -7 -8 -8 -8 -8 -8 -8 -8 -8 -8 -8 -9 -9 -9 -9 -9 -9 -9 -9 -9 -9 -10 -10 -10 -10 -10 -10 -10 -9 -9 -9 -8 -8 -8 -8 -8 -7 -7 -8 -9
-8 -8 -8 -8 -8 -8 -8 -8 -8 -8 -8 -8 -8 -8 -8 -8 -8 -8 -8 -8 -8 -8 -8 -7 -8 -8 -8 -8 -8 -8 -8 -8 -9 -9 -9 -9 -9 -9 -9 -9 -9 -9 -9 -9 -10 -10 -10 -10 -10 -10 -10 -9 -9 -9 -9 -9 -9 -9 -8 -8 -8 -9 -9
-8 -8 -8 -8 -8 -8 -8 -8 -8 -8 -8 -8 -8 -8 -8 -8 -8 -8 -8 -8 -8 -8 -8 -8 -8 -8 -8 -8 -8 -8 -8 -9 -9 -9 -9 -9 -9 -9 -9 -9 -9 -10 -10 -10 -10 -10 -10 -10 -10 -10 -10 -10 -9 -9 -9 -9 -9 -9 -9 -8 -8 -9 -9
-8 -8 -8 -8 -8 -8 -8 -8 -8 -8 -8 -8 -8 -8 -8 -8 -8 -8 -8 -8 -8 -8 -8 -8 -8 -8 -8 -8 -8 -9 -9 -9 -9 -9 -9 -9 -9 -9 -10 -10 -10 -10 -10 -10 -10 -10 -10 -10 -10 -10 -10 -10 -10 -9 -9 -9 -9 -9 -9 -9 -8 -9 -9
-8 -8 -8 -8 -8 -8 -8 -8 -8 -8 -8 -8 -8 -8 -8 -8 -8 -8 -8 -8 -8 -8 -8 -8 -8 -8 -8 -8 -9 -9 -9 -9 -9 -9 -9 -10 -10 -10 -10 -10 -10 -10 -10 -10 -10 -10 -10 -10 -10 -10 -10 -10 -10 -9 -9 -9 -9 -9 -10 -9 -9 -9 -10
-8 -8 -8 -8 -8 -8 -8 -8 -8 -8 -8 -8 -8 -8 -8 -8 -8 -8 -8 -8 -8 -8 -8 -8 -8 -8 -9 -9 -9 -9 -9 -9 -10 -10 -10 -10 -10 -10 -10 -10 -10 -10 -10 -10 -10 -10 -10 -10 -10 -10 -10 -10 -10 -10 -10 -9 -10 -10 -10 -10 -10 -10 -10
-8 -8 -8 -8 -8 -8 -8 -8 -8 -8 -8 -8 -8 -8 -8 -8 -8 -8 -8 -8 -8 -8 -8 -8 -8 -9 -9 -9 -9 -9 -9 -10 -10 -10 -10 -10 -10 -10 -10 -10 -10 -10 -10 -10 -10 -10 -10 -10 -10 -10 -10 -10 -10 -10 -10 -10 -10 -10 -11 -11 -11 -11 -11
-8 -8 -8 -8 -8 -8 -8 -8 -8 -8 -8 -8 -8 -8 -8 -8 -8 -8 -8 -8 -8 -8 -8 -9 -9 -9 -9 -9 -9 -9 -9 -9 -9 -10 -10 -10 -10 -10 -10 -10 -10 -10 -10 -10 -10 -10 -10 -10 -10 -10 -10 -10 -10 -10 -10 -10 -11 -11 -11 -11 -11 -11 -10
-8 -8 -8 -8 -8 -8 -8 -8 -8 -8 -8 -8 -8 -8 -8 -8 -8 -8 -8 -8 -8 -8 -9 -9 -9 -9 -9 -10 -10 -10 -9 -9 -9 -9 -9 -10 -11 -11 -11 -11 -10 -10 -10 -10 -10 -10 -10 -10 -10 -10 -10 -10 -10 -11 -11 -11 -11 -11 -11 -11 -11 -11 -11
-8 -8 -8 -8 -8 -8 -8 -8 -8 -8 -8 -8 -8 -8 -8 -8 -8 -8 -8 -8 -9 -9 -9 -9 -9 -9 -10 -10 -9 -9 -9 -9 -9 -9 -9 -10 -11 -10 -10 -10 -10 -10 -10 -10 -10 -10 -10 -10 -10 -10 -10 -11 -11 -11 -11 -12 -12 -12 -12 -11 -11 -11 -12
-8 -8 -8 -8 -8 -8 -8 -8 -8 -8 -8 -8 -8 -8 -8 -8 -8 -8 -8 -8 -9 -9 -9 -9 -9 -10 -10 -9 -9 -9 -9 -9 -9 -9 -10 -10 -10 -10 -9 -10 -10 -10 -10 -10 -10 -10 -10 -10 -10 -10 -11 -11 -11 -11 -12 -12 -12 -12 -12 -12 -12 -12 -12
-8 -8 -8 -8 -8 -8 -8 -8 -8 -8 -8 -8 -8 -8 -8 -8 -9 -9 -9 -9 -9 -9 -9 -9 -9 -10 -9 -9 -9 -9 -9 -9 -9 -10 -10 -10 -9 -9 -9 -10 -10 -10 -10 -10 -10 -10 -10 -10 -10 -11 -11 -11 -11 -11 -12 -12 -12 -12 -12 -12 -12 -12 -13
-8 -8 -8 -8 -8 -8 -8 -8 -8 -8 -8 -8 -9 -9 -9 -9 -9 -9 -9 -9 -9 -9 -9 -9 -10 -10 -9 -9 -9 -9 -9 -9 -9 -9 -9 -9 -9 -9 -9 -10 -10 -10 -10 -10 -10 -10 -10 -10 -11 -11 -11 -11 -11 -12 -12 -12 -12 -12 -12 -12 -13 -13 -13
-8 -8 -8 -8 -8 -8 -8 -8 -8 -9 -9 -9 -9 -9 -9 -9 -9 -9 -9 -9 -9 -9 -9 -9 -10 -9 -9 -9 -9 -9 -9 -9 -9 -9 -9 -10 -10 -10 -10 -10 -10 -10 -10 -10 -10 -10 -11 -11 -11 -11 -11 -11 -12 -12 -12 -12 -12 -12 -13 -13 -13 -13 -13
-9 -9 -9 -9 -8 -8 -8 -9 -9 -9 -9 -9 -9 -9 -9 -9 -9 -9 -9 -9 -9 -9 -9 -10 -10 -10 -9 -9 -9 -9 -9 -9 -9 -9 -9 -10 -10 -10 -10 -10 -10 -10 -10 -10 -10 -10 -10 -11 -11 -11 -11 -12 -12 -12 -12 -13 -13 -13 -13 -13 -13 -13 -14
-9 -9 -9 -9 -9 -9 -9 -9 -9 -9 -9 -9 -9 -9 -9 -9 -9 -9 -9 -9 -10 -10 -10 -10 -10 -10 -10 -9 -9 -9 -9 -9 -9 -9 -9 -9 -10 -10 -10 -10 -10 -10 -10 -10 -10 -10 -10 -11 -11 -12 -12 -12 -12 -13 -13 -13 -13 -13 -13 -13 -14 -14 -14
-10 -9 -9 -9 -9 -9 -9 -9 -9 -9 -9 -9 -9 -9 -9 -9 -9 -10 -10 -10 -10 -10 -10 -10 -10 -10 -10 -9 -9 -9 -9 -9 -9 -9 -9 -9 -10 -10 -10 -10 -10 -10 -10 -10 -10 -10 -11 -11 -11 -12 -12 -12 -13 -13 -13 -13 -13 -13 -13 -14 -14 -14 -14
-10 -10 -10 -9 -9 -9 -9 -10 -10 -9 -9 -9 -9 -9 -9 -9 -10 -10 -10 -10 -10 -10 -10 -10 -10 -10 -10 -9 -9 -9 -9 -9 -9 -9 -9 -10 -10 -10 -10 -10 -10 -10 -10 -10 -10 -11 -11 -11 -12 -12 -12 -12 -13 -13 -14 -14 -14 -14 -14 -14 -14 -15 -14
Height
5899 5899 5900 5900 5900 5900 5901 5902 5902 5903 5903 5903 5904 5904 5904 5904 5904 5905 5906 5906 5906 5907 5908 5908 5908 5908 5909 5909 5909 5909 5909 5909 5909 5909 5909 5909 5908 5907 5906 5905 5904 5903 5902 5900 5899 5898 5897 5895 5894 5893 5893 5892 5892 5891 5890 5889 5888 5887 5886 5886 5886 5886 5886
5898 5898 5898 5899 5899 5899 5899 5900 5900 5901 5901 5901 5902 5901 5901 5901 5901 5902 5903 5903 5904 5904 5905 5905 5906 5906 5906 5906 5907 5906 5906 5906 5906 5906 5906 5905 5905 5904 5903 5902 5901 5900 5898 5897 5896 5895 5894 5893 5891 5890 5890 5889 5889 5888 5887 5886 5885 5884 5883 5882 5882 5882 5882
5896 5897 5897 5897 5897 5897 5897 5898 5899 5899 5899 5899 5899 5899 5899 5899 5899 5899 5900 5900 5901 5902 5903 5904 5904 5904 5904 5904 5904 5904 5904 5903 5903 5903 5902 5902 5901 5901 5900 5899 5898 5897 5896 5895 5894 5893 5892 5890 5889 5888 5887 5886 5886 5885 5884 5883 5882 5881 5880 5879 5879 5879 5878
5895 5895 5895 5895 5895 5895 5896 5896 5897 5897 5897 5897 5897 5897 5897 5897 5896 5896 5897 5898 5899 5900 5901 5902 5901 5902 5902 5902 5902 5902 5901 5901 5900 5900 5899 5899 5898 5898 5897 5897 5897 5895 5894 5893 5892 5891 5889 5888 5887 5886 5885 5884 5883 5882 5881 5880 5879 5878 5877 5876 5876 5875 5874
5893 5893 5893 5893 5893 5893 5894 5894 5895 5895 5895 5895 5895 5895 5895 5894 5894 5894 5895 5896 5897 5898 5899 5899 5899 5900 5900 5899 5899 5899 5899 5898 5898 5897 5896 5896 5895 5895 5895 5895 5894 5893 5892 5890 5889 5888 5886 5885 5884 5883 5882 5881 5880 5879 5878 5877 5876 5875 5874 5873 5873 5872 5871
5891 5891 5891 5892 5891 5891 5892 5892 5893 5893 5893 5893 5893 5893 5892 5892 5892 5892 5893 5893 5894 5895 5896 5896 5897 5897 5897 5897 5897 5897 5896 5896 5895 5895 5894 5893 5893 5893 5893 5892 5890 5889 5888 5886 5885 5884 5882 5881 5880 5880 5879 5878 5878 5877 5876 5874 5873 5873 5872 5870 5870 5869 5867
5888 5888 5889 5890 5889 5889 5889 5890 5891 5891 5891 5891 5891 5891 5890 5890 5890 5890 5890 5891 5892 5892 5893 5894 5895 5895 5895 5895 5895 5894 5894 5894 5894 5893 5891 5890 5890 5890 5889 5888 5887 5886 5884 5882 5881 5879 5878 5877 5876 5875 5874 5874 5873 5873 5872 5871 5870 5869 5868 5867 5866 5865 5864
5884 5885 5886 5887 5887 5887 5887 5887 5888 5888 5889 5889 5889 5889 5888 5888 5888 5888 5889 5889 5889 5890 5891 5892 5893 5893 5893 5893 5893 5893 5893 5892 5891 5890 5889 5888 5887 5886 5886 5884 5883 5882 5880 5878 5876 5874 5874 5874 5873 5871 5870 5869 5869 5868 5867 5867 5866 5865 5864 5862 5861 5861 5860
5880 5882 5884 5884 5884 5884 5884 5885 5885 5885 5886 5887 5887 5887 5887 5886 5887 5887 5887 5887 5888 5889 5890 5890 5891 5891 5891 5891 5891 5891 5891 5889 5889 5888 5887 5886 5884 5883 5883 5881 5880 5878 5876 5874 5871 5869 5869 5870 5869 5868 5867 5866 5865 5864 5863 5862 5861 5860 5859 5858 5857 5856 5855
5878 5879 5880 5881 5881 5882 5882 5882 5882 5882 5884 5884 5884 5885 5885 5885 5885 5885 5886 5886 5886 5887 5888 5888 5889 5889 5889 5889 5889 5889 5888 5887 5886 5885 5884 5883 5882 5881 5880 5879 5877 5875 5873 5873 5870 5866 5865 5867 5866 5866 5865 5863 5862 5860 5858 5857 5857 5856 5855 5854 5852 5852 5851
5875 5876 5877 5878 5878 5879 5879 5879 5880 5880 5881 5882 5882 5883 5883 5883 5884 5884 5884 5884 5884 5885 5886 5886 5887 5887 5887 5886 5886 5885 5885 5884 5882 5881 5880 5878 5877 5877 5877 5876 5875 5873 5871 5871 5869 5865 5863 5863 5863 5862 5860 5859 5858 5856 5855 5853 5853 5853 5852 5849 5848 5847 5846
5872 5873 5874 5874 5875 5876 5876 5877 5878 5878 5879 5879 5879 5880 5880 5881 5881 5882 5882 5883 5883 5884 5884 5884 5884 5884 5884 5885 5884 5882 5882 5881 5879 5877 5876 5874 5873 5873 5872 5872 5872 5870 5868 5867 5865 5863 5861 5860 5860 5859 5857 5855 5854 5853 5852 5851 5851 5850 5848 5845 5843 5841 5840
5869 5869 5870 5871 5871 5872 5873 5874 5875 5875 5876 5876 5877 5878 5878 5879 5879 5880 5881 5881 5881 5882 5882 5882 5882 5882 5883 5883 5880 5879 5879 5878 5876 5875 5875 5874 5871 5868 5867 5869 5869 5867 5865 5864 5863 5861 5860 5859 5858 5857 5854 5853 5851 5850 5850 5848 5847 5846 5844 5841 5838 5835 5833
5865 5866 5867 5868 5868 5870 5871 5872 5872 5873 5873 5873 5874 5875 5875 5876 5877 5878 5878 5879 5879 5880 5880 5880 5880 5880 5881 5879 5876 5876 5876 5875 5874 5873 5873 5871 5867 5864 5864 5865 5866 5864 5862 5861 5860 5858 5857 5856 5855 5853 5852 5851 5849 5847 5845 5843 5842 5840 5838 5835 5832 5829 5827
5862 5863 5864 5865 5866 5867 5868 5869 5870 5871 5871 5871 5871 5872 5872 5873 5874 5875 5876 5876 5877 5877 5877 5877 5878 5878 5878 5875 5874 5875 5874 5872 5871 5871 5870 5867 5864 5863 5863 5863 5863 5861 5859 5857 5857 5856 5855 5854 5852 5851 5849 5847 5845 5842 5840 5838 5836 5834 5831 5828 5825 5823 5822
5857 5859 5861 5863 5864 5864 5865 5866 5867 5868 5868 5868 5868 5869 5870 5871 5872 5873 5873 5873 5874 5874 5874 5875 5875 5876 5874 5872 5872 5872 5870 5868 5868 5867 5867 5866 5862 5861 5860 5858 5859 5859 5857 5855 5854 5853 5853 5852 5849 5847 5845 5843 5840 5837 5835 5833 5831 5828 5824 5821 5819 5817 5816
5853 5855 5857 5859 5860 5861 5862 5862 5864 5865 5866 5866 5866 5867 5867 5868 5869 5869 5870 5870 5871 5871 5872 5872 5872 5872 5871 5870 5870 5869 5867 5867 5866 5864 5864 5863 5861 5858 5855 5853 5853 5853 5852 5851 5851 5850 5850 5848 5845 5842 5839 5837 5835 5833 5831 5829 5826 5822 5818 5815 5813 5811 5811
5849 5851 5853 5855 5856 5858 5859 5859 5861 5863 5863 5863 5863 5864 5865 5865 5866 5866 5866 5867 5868 5868 5869 5869 5869 5868 5867 5867 5868 5867 5866 5866 5865 5863 5861 5860 5858 5857 5854 5852 5851 5850 5849 5848 5848 5847 5847 5845 5842 5840 5837 5834 5832 5830 5827 5825 5821 5817 5813 5811 5808 5807 5805
5845 5846 5848 5851 5853 5855 5855 5856 5858 5860 5860 5860 5860 5861 5862 5862 5863 5863 5863 5863 5864 5865 5865 5865 5865 5864 5864 5864 5865 5864 5863 5863 5861 5860 5858 5856 5855 5854 5853 5851 5850 5848 5847 5845 5845 5844 5843 5841 5839 5837 5835 5832 5829 5826 5823 5819 5816 5813 5809 5807 5805 5802 5801
5840 5842 5844 5847 5849 5851 5852 5853 5855 5856 5856 5857 5857 5858 5858 5859 5859 5860 5860 5860 5860 5861 5861 5861 5861 5860 5860 5860 5860 5860 5859 5859 5858 5856 5854 5853 5852 5851 5850 5849 5846 5844 5843 5841 5840 5838 5837 5835 5833 5832 5829 5827 5824 5821 5818 5815 5811 5808 5805 5803 5801 5798 5797
5836 5838 5840 5842 5845 5847 5847 5849 5851 5852 5853 5854 5854 5854 5854 5855 5856 5856 5856 5857 5857 5857 5858 5858 5857 5857 5857 5857 5857 5856 5855 5854 5853 5852 5850 5849 5847 5847 5847 5845 5842 5840 5838 5836 5834 5832 5830 5828 5827 5826 5824 5822 5819 5817 5814 5811 5807 5804 5801 5799 5797 5795 5794
5832 5834 5836 5838 5841 5842 5844 5846 5848 5848 5849 5850 5850 5850 5851 5851 5852 5853 5853 5853 5854 5854 5854 5854 5854 5854 5854 5854 5853 5853 5852 5850 5849 5848 5846 5844 5843 5842 5842 5840 5838 5836 5834 5832 5830 5827 5825 5824 5822 5821 5819 5816 5815 5812 5809 5807 5804 5801 5798 5796 5794 5792 5791
5828 5830 5832 5834 5837 5839 5840 5842 5844 5845 5845 5845 5845 5846 5846 5847 5848 5849 5850 5850 5851 5851 5851 5851 5851 5851 5850 5850 5850 5849 5848 5847 5845 5844 5842 5840 5839 5838 5837 5834 5833 5831 5829 5827 5826 5824 5822 5820 5818 5816 5814 5812 5811 5809 5806 5803 5800 5798 5795 5793 5791 5790 5788
5823 5826 5828 5830 5832 5835 5836 5838 5841 5842 5841 5842 5841 5841 5843 5844 5844 5846 5848 5848 5847 5848 5848 5848 5848 5846 5846 5845 5845 5844 5843 5842 5841 5839 5837 5835 5834 5833 5832 5829 5827 5826 5824 5822 5821 5819 5817 5815 5813 5811 5810 5808 5807 5805 5802 5799 5796 5793 5791 5790 5788 5787 5785
5819 5822 5824 5826 5828 5830 5832 5835 5837 5838 5838 5839 5838 5839 5840 5840 5841 5843 5844 5844 5843 5843 5844 5844 5843 5842 5841 5840 5839 5839 5838 5837 5836 5834 5832 5830 5829 5828 5826 5824 5822 5820 5818 5816 5815 5813 5811 5809 5808 5806 5805 5804 5803 5801 5798 5795 5792 5790 5788 5787 5785 5784 5782
5815 5818 5820 5822 5824 5826 5828 5830 5832 5833 5834 5834 5835 5836 5836 5837 5837 5838 5839 5839 5839 5838 5839 5839 5838 5837 5836 5835 5834 5833 5832 5831 5830 5829 5826 5825 5823 5822 5820 5818 5816 5814 5812 5810 5809 5807 5805 5804 5803 5802 5801 5800 5799 5797 5795 5792 5789 5787 5786 5785 5783 5782 5780
5810 5814 5816 5818 5821 5823 5824 5825 5827 5828 5829 5830 5831 5832 5832 5833 5833 5834 5834 5834 5833 5833 5834 5834 5833 5831 5830 5829 5828 5827 5826 5826 5824 5822 5820 5819 5817 5816 5814 5812 5810 5808 5806 5805 5804 5802 5800 5799 5798 5797 5797 5795 5794 5792 5790 5788 5786 5785 5784 5783 5781 5779 5777
5806 5809 5812 5814 5816 5818 5819 5821 5823 5824 5825 5826 5827 5828 5828 5829 5829 5829 5829 5829 5829 5828 5829 5828 5827 5825 5824 5823 5822 5822 5821 5820 5818 5815 5814 5812 5810 5809 5807 5805 5804 5802 5801 5800 5798 5796 5795 5793 5793 5792 5791 5789 5788 5786 5785 5784 5783 5782 5781 5779 5777 5775 5772
5802 5804 5807 5809 5811 5812 5814 5816 5817 5819 5820 5821 5822 5823 5823 5823 5823 5823 5823 5823 5824 5824 5823 5822 5821 5820 5819 5818 5817 5816 5815 5813 5811 5809 5807 5805 5805 5804 5801 5798 5797 5796 5795 5794 5792 5791 5789 5788 5787 5786 5785 5783 5782 5780 5779 5778 5778 5776 5775 5772 5770 5768 5765
5797 5799 5802 5804 5806 5807 5809 5810 5812 5814 5815 5816 5816 5817 5817 5817 5817 5817 5818 5818 5818 5818 5817 5816 5816 5815 5814 5813 5812 5810 5808 5806 5804 5802 5800 5800 5799 5796 5793 5791 5791 5790 5789 5788 5786 5785 5784 5783 5782 5781 5779 5778 5776 5775 5774 5773 5771 5769 5767 5764 5762 5759 5757
5792 5795 5798 5799 5801 5802 5803 5805 5807 5808 5809 5810 5810 5811 5811 5811 5812 5812 5812 5813 5813 5812 5810 5810 5810 5810 5808 5807 5806 5804 5802 5800 5798 5797 5796 5794 5792 5789 5786 5785 5785 5784 5783 5782 5781 5780 5779 5778 5777 5776 5774 5773 5772 5770 5769 5767 5764 5762 5759 5757 5754 5752 5749
5788 5790 5792 5794 5795 5796 5798 5800 5802 5802 5803 5804 5805 5805 5806 5807 5807 5807 5806 5807 5807 5806 5805 5805 5805 5804 5802 5801 5799 5798 5796 5795 5793 5792 5791 5788 5785 5783 5782 5781 5780 5780 5779 5778 5776 5776 5775 5773 5772 5771 5769 5767 5766 5764 5762 5760 5758 5755 5752 5750 5748 5745 5743
5782 5784 5786 5787 5789 5790 5792 5794 5795 5797 5798 5799 5799 5800 5801 5802 5802 5802 5801 5801 5801 5801 5801 5801 5800 5799 5797 5796 5794 5793 5792 5791 5788 5787 5785 5783 5780 5779 5778 5777 5776 5776 5774 5773 5772 5770 5769 5768 5766 5765 5763 5762 5760 5759 5757 5754 5752 5749 5746 5744 5743 5741 5738
5775 5777 5779 5780 5782 5784 5785 5787 5789 5790 5791 5792 5793 5794 5796 5797 5797 5796 5796 5796 5796 5796 5796 5795 5795 5793 5792 5790 5789 5788 5787 5785 5783 5782 5780 5778 5776 5775 5774 5773 5772 5771 5769 5768 5766 5765 5763 5762 5760 5759 5757 5756 5754 5753 5751 5749 5746 5744 5742 5741 5739 5737 5733
5769 5770 5772 5774 5776 5777 5779 5780 5782 5783 5784 5785 5787 5789 5790 5791 5791 5791 5791 5791 5791 5791 5791 5790 5789 5788 5786 5785 5783 5782 5781 5779 5778 5777 5775 5773 5772 5771 5769 5768 5766 5765 5764 5762 5761 5759 5758 5756 5755 5753 5751 5750 5749 5747 5745 5743 5741 5740 5737 5735 5733 5730 5727
5763 5765 5766 5768 5769 5771 5771 5773 5775 5777 5779 5780 5782 5784 5785 5785 5785 5786 5786 5786 5786 5786 5785 5784 5783 5781 5780 5779 5777 5776 5775 5773 5772 5771 5770 5768 5766 5765 5765 5763 5762 5760 5759 5757 5756 5755 5753 5751 5750 5747 5746 5744 5743 5741 5739 5736 5735 5733 5730 5728 5726 5724 5723
5757 5759 5760 5761 5763 5764 5765 5766 5768 5771 5773 5775 5777 5778 5779 5780 5780 5780 5780 5779 5779 5778 5778 5777 5776 5775 5774 5772 5771 5770 5769 5768 5766 5765 5764 5762 5761 5760 5759 5758 5757 5755 5753 5752 5751 5750 5748 5746 5744 5742 5740 5739 5737 5734 5732 5729 5728 5726 5724 5723 5721 5720 5718
5751 5753 5754 5756 5757 5758 5759 5761 5763 5765 5768 5770 5772 5773 5774 5774 5774 5773 5772 5772 5771 5770 5769 5769 5769 5768 5767 5766 5765 5764 5764 5762 5760 5759 5758 5757 5756 5755 5754 5753 5751 5749 5748 5747 5746 5744 5742 5741 5739 5737 5734 5732 5730 5727 5725 5723 5722 5721 5720 5718 5716 5715 5713
Wind_Speed
25 24 24 25 24 23 21 20 19 18 18 17 15 15 17 17 18 19 20 20 20 20 19 20 21 21 20 20 20 20 20 20 20 20 19 18 18 19 19 20 20 19 19 19 20 20 22 23 24 25 26 26 25 25 24 23 23 23 24 24 25 26 26
26 25 24 22 21 20 19 18 17 16 15 14 13 13 14 15 14 15 17 19 19 19 19 19 19 19 20 20 19 19 19 19 19 19 19 19 20 20 20 20 21 21 21 22 22 22 22 24 26 26 27 27 27 26 26 25 24 24 25 25 26 26 27
21 21 17 14 14 15 16 16 14 14 14 14 13 13 14 14 14 14 16 18 19 19 18 18 18 19 20 20 19 18 18 19 19 20 21 21 21 20 20 20 22 23 24 24 24 24 25 26 27 28 28 28 27 28 27 26 26 26 25 26 26 26 28
12 13 11 12 13 14 16 16 14 14 15 15 14 14 13 13 15 16 16 17 18 18 17 18 19 19 18 18 18 17 18 19 20 21 22 22 22 22 21 21 23 25 26 27 26 25 27 30 30 30 30 28 27 27 28 28 27 27 27 27 26 26 27
12 12 12 14 16 17 17 17 17 16 17 17 16 14 12 13 16 16 16 17 17 18 18 19 19 17 16 17 16 16 17 18 19 21 21 22 23 23 23 24 25 27 28 28 28 27 30 33 33 31 30 30 28 28 29 29 28 28 28 28 28 27 27
17 17 15 15 18 21 20 19 20 20 19 19 17 14 12 12 13 15 16 16 16 17 19 18 16 15 15 15 14 14 15 16 18 19 21 22 23 23 24 25 27 28 29 29 30 31 33 35 36 36 34 33 31 30 29 29 29 30 31 31 31 31 30
21 19 17 17 19 21 22 22 23 22 21 21 18 15 13 12 12 14 15 15 16 17 18 16 15 14 13 12 11 12 13 15 17 18 22 24 23 24 25 26 28 28 29 30 32 33 35 37 38 39 39 36 33 33 32 32 32 33 34 35 36 35 34
24 22 19 19 20 20 22 23 25 25 24 23 20 15 13 12 11 12 13 14 16 17 16 14 13 12 10 10 10 10 12 15 17 19 23 24 25 27 28 30 31 31 32 34 36 37 38 37 38 39 41 39 36 36 35 35 35 37 38 39 39 39 38
23 21 19 20 23 22 23 24 26 27 25 24 21 16 14 13 11 11 11 13 14 14 14 13 12 11 10 9 8 9 12 16 18 20 22 23 23 25 28 32 32 32 35 37 39 42 40 35 34 37 40 41 40 40 38 37 38 40 41 42 41 40 39
20 18 16 18 22 25 26 26 27 27 25 25 23 17 15 15 14 12 11 11 12 13 13 12 11 10 9 9 10 10 14 17 19 21 22 21 22 24 28 31 31 32 36 37 40 46 42 34 34 39 42 42 41 40 39 37 36 36 38 41 41 40 39
19 18 15 15 19 23 26 27 26 25 25 26 24 18 16 18 17 15 12 11 13 12 12 11 11 11 10 12 14 14 17 20 22 24 21 19 23 27 27 28 29 32 36 39 40 42 38 34 36 40 41 41 39 38 38 36 34 34 37 40 40 40 39
18 17 17 17 17 19 23 23 23 24 26 27 25 20 18 18 18 17 15 14 15 14 13 12 12 14 13 14 17 20 22 23 25 28 28 28 32 34 32 32 34 36 38 41 37 33 32 34 35 34 35 36 35 31 29 29 29 31 35 39 40 42 43
16 17 18 19 18 18 20 21 22 25 27 28 27 22 20 19 18 18 17 17 17 16 16 14 16 18 15 16 20 23 24 25 25 26 30 35 39 40 37 36 38 41 43 43 38 32 33 35 35 34 34 33 30 25 23 25 27 30 36 39 41 43 45
14 16 18 21 21 20 21 22 23 26 27 29 28 25 22 20 19 19 19 20 20 19 18 18 19 20 18 20 24 23 24 27 26 24 26 33 39 41 41 38 39 42 44 43 40 37 38 38 36 33 30 29 28 25 27 31 34 37 41 43 44 44 45
16 18 18 20 22 24 24 24 25 27 27 29 28 26 24 22 21 20 21 22 22 22 21 21 21 21 21 25 27 26 27 30 31 30 32 36 38 38 40 40 39 40 41 42 41 39 39 40 38 34 31 30 28 27 29 33 37 41 44 46 47 45 44
19 21 20 20 23 26 27 27 28 28 27 28 28 27 26 24 22 22 23 24 25 25 24 24 23 22 25 28 29 29 32 34 35 36 37 38 38 37 39 41 40 39 40 41 42 41 42 43 41 38 35 31 29 31 33 36 39 42 43 44 47 46 43
21 22 22 23 25 27 29 31 31 29 28 28 28 27 27 25 23 24 26 27 27 26 26 26 26 27 29 30 29 31 34 36 37 38 37 36 37 39 42 45 45 44 44 44 45 46 47 46 44 41 38 36 35 37 38 39 40 41 41 42 45 46 42
24 26 25 25 27 29 32 34 32 28 28 29 29 28 28 27 26 27 28 28 28 27 27 27 28 29 30 29 29 32 35 36 37 37 36 35 36 38 42 45 47 47 48 48 48 49 48 47 44 40 38 37 38 40 41 40 39 40 41 42 43 43 40
29 30 28 26 26 29 33 35 32 30 30 30 30 30 30 30 29 29 30 32 31 30 29 28 27 25 25 26 29 33 36 37 38 39 39 40 40 41 42 45 47 48 49 50 51 52 51 48 43 39 37 37 38 41 42 40 39 39 40 39 38 37 36
33 33 29 26 26 29 33 35 34 33 32 31 32 33 34 33 32 32 34 35 35 34 32 30 27 26 26 28 32 35 37 39 41 43 44 46 46 46 46 48 50 51 52 53 54 54 54 51 46 41 39 39 39 40 41 39 38 38 37 36 34 32 31
36 34 31 28 28 31 34 34 33 34 34 34 35 36 36 36 35 36 38 38 37 37 34 32 30 29 29 31 34 37 40 43 45 47 49 51 51 51 51 51 52 53 54 56 57 56 56 55 50 44 41 41 40 40 39 37 35 34 33 32 31 30 28
36 35 34 32 31 33 34 32 30 32 34 36 39 40 40 40 39 38 39 39 38 38 36 36 35 34 34 35 37 40 42 45 47 49 50 52 52 52 53 53 53 54 55 56 58 58 57 57 52 46 42 41 40 40 38 35 32 30 30 29 28 28 26
39 38 36 33 33 35 36 34 31 33 36 39 41 42 42 43 43 41 40 40 40 39 38 38 38 38 39 40 42 43 45 46 48 49 51 53 53 53 54 55 56 56 56 57 58 58 58 57 53 46 40 39 39 38 36 34 31 29 28 27 26 26 26
40 41 39 36 35 36 38 37 35 36 39 42 43 44 43 44 46 45 43 43 44 43 41 40 40 41 43 44 46 46 47 48 49 50 52 55 55 55 56 57 58 58 58 59 60 60 58 56 52 44 38 37 37 36 34 32 31 30 29 28 26 24 22
42 42 42 39 38 38 39 39 38 39 43 45 47 47 46 46 47 46 43 43 45 46 46 46 44 43 45 47 48 48 48 49 50 52 55 57 58 58 58 59 60 59 59 62 64 62 58 56 52 44 38 36 35 33 32 31 31 31 30 29 26 22 19
43 43 42 41 40 39 40 41 41 42 45 47 48 49 49 50 50 48 46 46 46 48 50 48 45 44 45 47 48 49 50 50 51 54 58 60 60 60 60 60 60 60 62 66 66 60 56 55 52 43 37 35 34 32 31 31 31 31 29 27 24 22 19
42 42 41 41 41 40 41 42 44 45 46 48 50 50 51 52 53 52 50 49 49 51 50 48 45 44 45 48 50 51 50 51 53 56 59 62 62 61 62 62 63 63 65 66 62 57 55 54 49 41 36 34 33 32 32 31 30 30 29 26 24 24 25
42 42 42 41 41 42 42 43 44 46 47 48 49 51 52 53 54 54 52 51 52 52 49 46 46 46 47 49 52 53 52 53 55 57 60 62 62 61 63 65 65 65 64 62 58 56 55 51 44 38 36 35 34 35 34 31 29 30 31 30 30 32 35
43 44 44 43 43 44 44 45 46 46 47 48 49 50 52 53 54 53 52 52 51 49 47 46 47 48 49 50 52 53 54 56 57 59 61 63 62 63 64 64 62 61 59 58 56 54 50 44 39 37 37 36 36 37 35 33 33 34 36 36 36 37 37
45 45 45 45 45 45 44 45 45 45 46 47 48 47 48 49 51 51 52 52 50 48 46 45 46 49 50 52 53 54 56 57 58 60 63 63 62 63 62 58 55 54 53 52 49 45 41 38 37 37 36 37 38 38 37 39 40 41 41 40 39 37 35
46 47 46 47 47 46 45 44 44 44 45 45 46 46 46 48 49 51 53 54 54 52 49 45 46 50 53 55 56 56 57 57 58 60 62 62 61 59 56 51 48 47 45 43 41 39 38 38 37 37 37 38 39 40 42 43 43 41 40 40 38 36 35
45 46 46 47 46 45 44 42 42 43 42 42 44 45 45 46 49 51 52 51 50 50 48 46 48 52 55 56 56 55 56 58 58 59 58 57 54 51 46 43 41 40 39 38 39 38 38 38 38 39 39 41 42 43 44 43 41 39 40 39 37 36 34
45 45 46 46 46 44 42 41 41 41 41 42 43 43 44 45 46 47 46 45 45 45 45 47 51 54 56 56 55 54 54 56 56 56 52 48 45 42 40 39 39 38 38 38 39 39 39 39 40 41 42 43 44 44 43 41 40 39 39 36 35 35 34
45 46 47 47 47 45 44 44 44 43 43 44 45 44 44 44 43 42 42 44 45 46 46 49 53 54 55 55 54 54 55 54 52 50 46 43 41 40 41 41 40 39 38 39 40 41 41 41 42 43 44 44 44 44 42 40 38 38 36 34 34 35 34
46 47 48 48 48 49 50 50 49 48 47 46 45 43 42 41 41 42 43 45 46 47 48 51 53 53 54 54 54 55 54 51 48 47 45 43 42 43 43 43 42 41 41 41 42 43 43 43 44 44 44 45 44 42 41 39 38 37 37 35 34 33 32
46 47 47 48 50 51 53 53 52 50 48 45 42 40 39 40 41 42 44 46 47 47 48 50 52 53 53 53 54 54 51 47 46 46 46 46 46 45 45 44 43 43 44 44 44 45 45 45 45 45 45 46 44 41 41 40 39 38 36 34 32 31 32
43 46 47 48 49 51 53 53 50 45 42 40 38 38 40 41 43 43 44 46 47 47 47 49 50 51 51 51 51 50 47 46 46 46 46 47 47 47 46 46 46 46 46 46 47 47 47 46 46 46 46 46 44 42 41 40 38 36 33 32 31 32 33
43 45 47 47 47 50 53 50 45 39 36 36 37 38 40 42 43 45 46 46 47 48 49 49 48 47 47 48 48 47 45 45 45 45 46 46 47 47 47 47 48 48 48 48 48 47 47 46 46 47 47 46 44 42 40 38 35 33 32 32 32 33 34
Wind_Direction
229 235 239 243 247 249 245 242 245 250 256 260 263 266 266 263 257 253 251 252 254 254 254 254 255 258 260 264 269 273 275 277 278 280 281 282 283 284 285 286 286 283 281 279 279 282 286 287 286 284 284 284 285 285 284 283 282 281 278 276 275 274 271
233 238 244 251 255 253 248 245 247 252 260 267 272 277 277 271 262 253 248 248 251 251 250 251 255 257 261 265 270 273 274 277 279 281 282 282 283 284 285 285 284 283 280 277 278 280 282 283 284 285 283 282 282 281 280 278 278 278 278 277 276 275 272
236 239 250 263 260 253 251 252 258 265 270 276 283 287 282 274 265 253 245 243 245 247 249 251 254 257 262 267 269 270 272 276 279 281 282 282 282 282 282 283 285 286 285 284 286 288 287 287 288 288 285 282 280 279 278 276 275 276 277 278 278 276 274
228 231 244 259 260 261 264 266 273 278 279 284 290 291 284 273 264 255 247 244 244 247 250 252 255 258 262 263 263 266 272 277 280 282 283 283 284 282 283 287 290 292 293 294 295 294 294 295 296 296 291 285 281 280 279 276 274 273 275 277 279 278 276
229 234 241 252 261 267 270 275 281 281 284 291 294 292 283 270 262 255 251 248 248 250 251 251 253 255 256 257 261 268 272 276 279 281 284 287 289 290 291 293 294 294 296 297 297 294 293 295 298 300 295 287 282 280 280 279 277 275 276 277 278 278 277
231 237 240 250 260 263 264 270 276 278 284 291 293 289 280 275 266 255 249 246 246 246 245 245 246 248 251 256 263 267 271 277 282 285 290 294 297 301 300 298 295 294 294 295 296 294 290 291 293 294 291 287 284 283 281 280 280 280 281 279 278 277 277
224 229 232 244 256 260 260 262 266 272 278 284 288 284 279 281 270 253 244 237 235 236 235 236 238 241 247 252 257 266 279 289 293 296 300 300 301 303 301 298 293 289 288 290 291 289 286 287 288 287 285 284 284 284 280 278 281 284 285 283 279 277 275
217 220 223 235 247 255 259 258 260 266 272 278 282 278 274 274 260 244 236 229 229 230 228 227 227 228 232 238 253 277 295 301 303 303 302 302 302 300 298 298 295 288 285 287 287 285 285 288 290 287 285 284 284 285 282 277 279 285 286 285 282 278 274
214 220 225 235 241 247 254 256 258 262 267 274 277 271 265 263 251 238 233 229 227 222 215 212 211 214 223 238 263 289 300 305 307 303 300 302 305 302 297 299 300 294 291 291 287 285 288 291 295 295 292 289 287 288 286 279 277 282 285 286 284 281 277
226 232 235 241 241 241 245 249 255 259 265 272 275 268 259 255 251 249 246 236 225 217 210 208 212 221 236 258 275 292 304 309 304 297 298 300 299 297 293 296 300 298 299 298 286 280 284 290 298 303 300 294 290 291 291 283 275 281 290 291 286 282 281
237 243 247 249 244 241 244 248 254 259 263 269 272 269 259 254 253 254 250 236 227 224 222 221 231 241 255 271 278 290 305 310 302 292 289 288 292 295 291 293 303 305 307 307 291 280 287 299 307 308 302 295 291 291 294 289 279 283 296 296 286 280 279
242 254 261 260 250 245 247 250 253 256 261 267 271 269 261 255 252 249 243 234 229 231 234 239 250 256 267 279 280 285 295 305 304 289 278 279 291 296 291 291 302 309 314 317 307 295 300 308 313 316 313 307 302 299 304 304 293 291 299 298 288 280 276
248 254 259 260 255 249 248 249 252 255 260 265 267 266 260 254 249 244 238 233 231 237 244 250 260 266 275 282 279 282 290 301 307 292 279 281 288 290 289 292 300 305 310 318 319 316 316 314 312 316 319 319 315 309 312 317 313 306 304 301 293 283 276
246 248 248 252 255 254 249 248 251 254 258 262 263 263 259 253 248 244 240 239 240 246 252 257 265 272 278 277 276 284 292 296 301 300 293 293 293 292 292 297 303 306 308 315 320 323 325 324 321 320 321 322 318 309 304 308 311 309 306 302 295 286 278
233 244 246 249 255 256 252 248 249 252 256 259 260 261 259 254 251 249 246 246 249 252 255 260 267 275 279 278 281 289 292 291 295 300 302 304 304 300 297 299 305 309 313 321 326 329 331 329 326 324 323 323 322 318 310 307 306 304 302 300 295 288 281
227 237 242 246 249 252 252 249 249 251 253 255 257 258 257 255 254 252 250 250 252 255 259 263 270 277 280 283 289 294 295 296 299 300 302 305 307 305 300 301 308 314 318 323 328 330 331 330 326 323 322 323 323 323 319 314 308 303 299 298 294 291 286
224 230 235 239 239 242 247 248 247 249 252 254 253 252 252 252 250 250 251 252 254 258 263 267 273 279 281 285 290 294 298 302 304 303 303 304 303 303 303 306 311 317 319 321 323 325 327 328 326 324 323 324 324 323 321 318 313 306 302 300 297 295 291
220 222 227 235 235 235 240 245 246 247 248 249 248 246 247 248 249 252 256 258 260 262 266 272 278 282 284 287 290 293 299 304 304 302 302 300 298 300 305 310 314 317 317 317 318 319 322 324 322 321 321 321 322 322 320 319 315 309 305 303 300 298 295
220 218 220 229 232 231 236 242 244 242 240 242 243 244 245 247 250 255 259 261 263 265 268 275 283 287 291 297 300 301 305 306 303 300 300 300 300 303 307 311 315 317 317 316 315 315 318 321 319 318 319 319 319 320 318 318 315 311 307 304 302 299 296
220 216 213 217 225 229 233 237 238 236 234 235 239 243 245 247 249 254 257 260 263 266 270 276 283 287 294 304 309 309 310 309 306 304 304 306 307 308 309 311 313 315 316 316 315 315 318 321 319 317 317 318 318 318 317 316 314 311 307 304 302 298 291
216 211 206 210 221 229 233 233 231 231 232 235 240 243 245 247 249 253 257 260 264 267 271 275 279 283 289 299 305 308 309 310 308 308 309 310 310 310 311 311 311 313 313 313 313 313 315 318 318 315 314 315 316 317 316 314 311 308 305 302 300 294 286
212 206 204 209 218 228 233 232 230 233 233 234 238 242 245 248 251 254 257 262 266 269 272 276 279 281 285 290 296 301 306 307 307 307 307 308 309 309 310 309 309 311 311 311 311 310 311 314 315 313 310 311 313 314 314 313 310 305 303 300 296 289 280
208 205 205 209 215 225 232 231 231 236 239 238 240 243 246 250 253 257 262 267 270 273 276 279 282 284 284 287 291 295 299 302 303 303 303 304 305 306 306 305 304 306 307 308 308 306 305 308 311 310 307 307 309 312 312 312 311 308 305 301 294 285 278
207 208 208 209 213 223 231 232 231 235 241 244 247 250 253 256 259 262 268 272 272 274 278 280 282 284 287 289 290 292 294 297 298 298 298 299 300 301 302 302 301 301 302 303 305 304 302 305 308 307 303 304 306 308 311 312 311 309 306 303 296 287 278
209 212 213 212 214 220 227 231 231 232 237 242 247 251 255 259 262 264 268 272 274 275 279 280 279 282 287 290 290 290 292 294 294 293 294 296 296 298 298 298 297 297 297 300 303 303 300 303 306 303 299 300 301 304 308 310 310 309 306 301 295 283 270
210 214 215 215 217 221 225 228 230 231 234 238 243 248 253 257 263 266 269 273 276 277 280 282 280 280 285 288 289 289 289 289 290 290 291 292 293 294 294 293 293 294 295 299 301 300 298 301 301 298 295 295 296 301 307 309 309 308 303 296 288 277 270
210 214 217 218 219 223 227 229 231 233 235 238 242 247 252 256 261 265 268 272 275 277 281 284 282 280 282 285 286 284 284 286 289 290 290 289 289 290 291 291 292 293 294 297 298 297 297 298 295 292 292 293 296 302 307 308 306 302 296 290 284 281 285
212 216 220 222 222 225 229 232 234 236 239 242 246 249 253 256 260 264 267 270 273 276 278 280 280 280 281 283 284 282 282 286 289 290 289 288 287 289 291 291 291 291 293 295 295 294 294 293 290 289 291 294 298 304 306 304 300 294 291 288 288 289 292
216 219 223 225 226 229 231 234 236 239 241 245 248 251 254 257 259 263 266 268 269 271 273 276 278 279 280 281 282 283 284 287 290 291 291 290 289 291 292 291 290 290 290 291 290 290 289 287 287 290 293 296 300 303 303 300 296 293 293 294 295 297 298
219 222 226 228 229 231 234 236 238 241 244 247 250 252 255 258 260 262 265 267 268 267 268 273 276 277 279 280 282 283 285 287 291 293 293 292 293 293 292 290 289 288 287 287 286 286 285 285 287 291 294 297 300 300 299 299 297 297 300 303 305 307 307
223 225 229 231 233 234 236 238 241 244 247 250 252 254 257 260 263 266 267 270 271 267 263 266 271 274 278 281 283 285 288 290 291 291 290 291 292 291 289 288 286 285 284 284 285 285 285 286 289 292 294 295 296 297 298 299 299 301 306 309 311 311 310
226 229 233 235 237 240 241 242 244 245 247 249 250 253 255 258 263 266 267 270 274 269 262 264 271 275 278 281 283 286 290 291 290 288 288 289 289 287 286 284 283 283 284 285 286 286 288 290 292 293 294 294 295 297 299 300 300 304 310 313 312 310 307
227 230 233 236 238 241 243 242 242 241 243 246 249 252 255 259 264 268 267 269 273 271 265 266 272 275 277 279 281 285 288 288 286 286 287 287 286 284 283 282 281 283 285 286 287 289 291 293 294 294 295 295 296 298 299 299 300 305 310 310 307 305 303
226 229 232 234 236 238 239 238 237 237 240 245 249 254 259 263 266 269 270 271 274 275 271 269 270 273 276 277 279 283 286 285 283 284 285 284 282 282 282 282 283 285 287 288 290 292 294 295 295 295 296 296 296 297 298 299 301 304 305 304 302 300 299
227 230 233 234 235 237 238 236 236 238 242 248 252 256 261 264 265 267 270 272 274 275 273 270 270 273 275 277 279 282 283 281 280 282 282 281 281 281 282 285 287 288 289 290 291 293 295 295 296 296 296 295 296 297 298 299 302 302 303 303 303 299 298
232 234 236 236 237 238 238 238 238 240 244 248 253 257 260 263 265 267 270 271 272 273 272 271 272 274 276 278 280 281 278 276 277 279 279 280 281 282 283 286 287 287 287 289 290 293 294 295 295 294 293 294 295 296 298 301 304 304 305 305 302 298 297
237 237 238 239 241 242 243 242 241 240 241 245 251 257 260 263 265 266 268 269 270 272 273 272 272 274 275 277 277 276 274 274 276 278 278 279 280 282 283 285 285 285 287 288 291 293 293 293 293 292 292 294 295 297 301 305 306 305 303 300 297 296 297
238 239 241 243 244 246 246 242 239 239 244 249 254 258 260 262 263 264 266 268 271 273 273 272 271 272 274 274 273 272 273 275 277 278 279 279 280 281 283 284 284 286 287 289 290 292 293 293 293 292 293 294 297 301 304 305 302 299 297 294 294 294 294